Regional Weather Roundup
Issued by NWS Cleveland, OH

Home | Current Version | Previous Version | Text Only | Print | Product List | Glossary On
Versions: 1 2 3 4 5 6 7 8 9 10 11 12 13 14 15 16 17 18 19 20 21 22 23 24 25 26 27 28 29 30 31 32 33 34 35 36 37 38 39 40 41 42 43 44 45 46 47 48 49 50
000
ASUS41 KCLE 170012
RWRCLE
OHIO REGIONAL WEATHER ROUNDUP
NATIONAL WEATHER SERVICE WILMINGTON, OH
700 PM EST SAT DEC 16 2017

NOTE: "FAIR" INDICATES FEW OR NO CLOUDS BELOW 12,000 FEET WITH NO
SIGNIFICANT WEATHER AND/OR OBSTRUCTIONS TO VISIBILITY.

OHZ001>008-015>018-024>027-034-035-043-044-170100-
   NORTHWEST OHIO

CITY           SKY/WX    TMP DP  RH WIND       PRES   REMARKS
DEFIANCE       FAIR      33  26  75 NE5       30.06R WCI  29
FINDLAY        FAIR      35  27  72 E6        30.05R
TOLEDO EXPRESS FAIR      30  28  92 E8        30.08R WCI  22
TOLEDO EXEC    FAIR      30  27  88 NE8       30.10R WCI  22
LIMA           FAIR      35  27  72 S5        30.05R
$$

OHZ009>014-019>023-028>033-038-089-170100-
   NORTHEAST OHIO

CITY           SKY/WX    TMP DP  RH WIND       PRES   REMARKS
CLE-HOPKINS    FAIR      35  29  78 NE6       30.11R
CLE-LAKEFRONT  FAIR      34  30  85 NE6       30.09S WCI  29
CUY CO. ARPT   MOCLDY    34  30  86 E8        30.09R WCI  27
LORAIN-ELYRIA  FAIR      31  24  75 NE3       30.09R
ASHTABULA      CLOUDY    31  29  92 E5        30.10R WCI  26
AKRON-CANTON   FAIR      36  25  64 CALM      30.08R
WOOSTER        FAIR      24  21  88 CALM      30.09R
MANSFIELD      FAIR      37  27  67 S5        30.06R
YOUNGSTOWN     MOCLDY    32  26  78 E3        30.08R
$$

OHZ042-051>053-060>062-070>072-077>081-170100-
  SOUTHWEST OHIO

CITY           SKY/WX    TMP DP  RH WIND       PRES   REMARKS
CINC-COVINGTON FAIR      44  29  55 S12       30.08S
CINC-LUNKEN    FAIR      42  28  57 S10       30.11R
HAMILTON       FAIR      44  27  51 S3        30.09R
DAYTON         FAIR      42  28  57 SW13      30.07R
WRIGHT-PAT AFB FAIR      40  25  54 S8        30.06R
DAYTON GENERAL FAIR      42  26  53 S9        30.06R
WILMINGTON     FAIR      39  28  64 S9        30.07R
$$

OHZ036-037-039>041-045>050-054>059-063>069-073>076-082>088-170100-
  CENTRAL AND SOUTHEAST OHIO

CITY           SKY/WX    TMP DP  RH WIND       PRES   REMARKS
COLUMBUS       FAIR      42  28  57 S3        30.08R
OSU AIRPORT    FAIR      41  28  60 S5        30.08R
BOLTON FIELD   CLEAR     37  27  65 SW3       30.08R
RICKENBACK AFB FAIR      38  27  64 SW7       30.08R
NEWARK         FAIR      35  25  66 CALM      30.08R
MARION         FAIR      33  26  75 S6        30.07  WCI  28
LANCASTER      FAIR      40  27  59 S5        30.09R
ZANESVILLE     FAIR      41  25  53 CALM      30.09R
NEW PHILLY     FAIR      30  25  81 SE3       30.10R
$$




USA.gov is the U.S. government's official web portal to all federal, state and local government web resources and services.